Weather History for KPUW - June, 2014

Change the Weather History Date:

Wednesday, June 4, 2014

  Actual Average Record
Temperature  
Mean Temperature 61 °F 56 °F  
Max Temperature 76 °F 68 °F 92 °F (1970)
Min Temperature 46 °F 45 °F 30 °F (1962)
Degree Days  
Heating Degree Days 4 9  
Month to date heating degree days 10 36  
Since 1 June heating degree days 10 36  
Since 1 July heating degree days 6450 6436  
Cooling Degree Days 0 0  
Month to date cooling degree days 1 0  
Year to date cooling degree days 2 5  
Since 1 June cooling degree days 1 0  
Growing Degree Days 10 (Base 50)    
Moisture  
Dew Point 43 °F    
Average Humidity 58    
Maximum Humidity 86    
Minimum Humidity 29    
Precipitation  
Precipitation 0.00 in 0.05 in 0.86 in (1974)
Month to date precipitation T 0.17  
Year to date precipitation 9.68 8.68  
Sea Level Pressure  
Sea Level Pressure 29.98 in    
Wind  
Wind Speed 5 mph (West)    
Max Wind Speed 13 mph    
Max Gust Speed 22 mph    
Visibility 10 miles    
Events      
T = Trace of Precipitation, MM = Missing Value Source: NWS Daily Summary

Daily Weather History Graph

Daily Weather History Graph

Search for Another Location

Airport or City:

Trip Planner

Search our weather history database for the weather conditions in past years. The results will help you decide how hot, cold, wet, or windy it might be!

Date:

Astronomy

Jun. 04, 2014 Rise Set
Actual Time 4:56 AM PDT 8:37 PM PDT
Civil Twilight 4:18 AM PDT 9:16 PM PDT
Nautical Twilight 3:26 AM PDT 10:08 PM PDT
Astronomical Twilight 2:14 AM PDT 11:20 PM PDT
Moon 11:37 AM PDT (6/4) 12:22 AM PDT (6/4)
Length of Visible Light 16h 58m
Length of Day
15h 40m
Waxing Crescent, 40% of the Moon is Illuminated
Jun 4
Waxing Crescent
Jun 5
First Quarter
Jun 12
Full
Jun 19
Last Quarter
Jun 27
New

Hourly Weather History & Observations

Time (PDT) Temp. Dew Point Humidity Pressure Visibility Wind Dir Wind Speed Gust Speed Precip Events Conditions
12:53 AM 55.0 °F 45.0 °F 69% 29.95 in 10.0 mi Variable 4.6 mph - N/A   Mostly Cloudy
1:53 AM 54.0 °F 46.9 °F 77% 29.94 in 10.0 mi Calm Calm - N/A   Mostly Cloudy
2:53 AM 51.1 °F 46.0 °F 83% 29.97 in 10.0 mi Calm Calm - N/A   Clear
3:53 AM 48.9 °F 43.0 °F 80% 29.98 in 10.0 mi Calm Calm - N/A   Partly Cloudy
4:53 AM 46.9 °F 42.1 °F 83% 29.99 in 10.0 mi ENE 3.5 mph - N/A   Clear
5:53 AM 48.0 °F 43.0 °F 83% 30.01 in 10.0 mi Calm Calm - N/A   Clear
6:53 AM 55.9 °F 44.1 °F 64% 30.02 in 10.0 mi North 3.5 mph - N/A   Clear
8:53 AM 62.1 °F 44.1 °F 52% 30.05 in 10.0 mi West 10.4 mph - N/A   Clear
9:53 AM 64.0 °F 45.0 °F 50% 30.04 in 10.0 mi West 9.2 mph - N/A   Clear
10:53 AM 68.0 °F 46.0 °F 45% 30.04 in 10.0 mi West 8.1 mph - N/A   Clear
11:53 AM 69.1 °F 46.0 °F 44% 30.03 in 10.0 mi West 8.1 mph - N/A   Clear
12:53 PM 71.1 °F 45.0 °F 39% 30.01 in 10.0 mi Variable 5.8 mph - N/A   Clear
1:53 PM 72.0 °F 45.0 °F 38% 29.99 in 10.0 mi Variable 4.6 mph - N/A   Clear
2:53 PM 73.9 °F 42.1 °F 32% 29.98 in 10.0 mi West 6.9 mph - N/A   Clear
3:53 PM 75.0 °F 41.0 °F 29% 29.97 in 10.0 mi West 10.4 mph 18.4 mph N/A   Clear
4:53 PM 75.0 °F 42.1 °F 31% 29.96 in 10.0 mi WSW 9.2 mph - N/A   Clear
5:53 PM 73.0 °F 42.1 °F 33% 29.94 in 10.0 mi WSW 10.4 mph - N/A   Clear
6:53 PM 73.0 °F 44.1 °F 35% 29.92 in 10.0 mi West 8.1 mph - N/A   Partly Cloudy
8:53 PM 63.0 °F 42.1 °F 46% 29.92 in 10.0 mi Calm Calm - N/A   Clear
9:53 PM 59.0 °F 39.9 °F 49% 29.92 in 10.0 mi Calm Calm - N/A   Clear
10:53 PM 55.9 °F 39.0 °F 53% 29.91 in 10.0 mi Calm Calm - N/A   Clear
11:53 PM 53.1 °F 37.9 °F 57% 29.92 in 10.0 mi Calm Calm - N/A   Clear